KNA4318 ZPPP-ZGDY

Flight info

Callsign KNA4318
Flight time N/A
Altitude 35100
Route NODIB W137 LPS A581 HUY
Aircraft B738/M-SDE2E3FGHIRWXY/LB1

Departure

Time N/A
Airport Kunming Changshui International Airport (ZPPP)

Arrival

Time 2026-04-27 14:47
Airport Zhangjiajie Hehua International Airport (ZGDY)
Time Latitude Longitude Altitude Speed Heading
2026-04-27 13:32 25.75943 103.99655 30592 ft 483 kts 57°
2026-04-27 13:33 25.77750 104.02796 31273 ft 477 kts 57°
2026-04-27 13:33 25.78945 104.04871 31737 ft 472 kts 57°
2026-04-27 13:33 25.81290 104.08930 32580 ft 464 kts 57°
2026-04-27 13:33 25.82470 104.10951 32850 ft 464 kts 57°
2026-04-27 13:34 25.84236 104.13961 32993 ft 469 kts 57°
2026-04-27 13:34 25.86634 104.18034 33208 ft 476 kts 57°
2026-04-27 13:34 25.87842 104.20086 33456 ft 475 kts 56°
2026-04-27 13:34 25.89643 104.23147 34032 ft 471 kts 56°
2026-04-27 13:35 25.91422 104.26176 34604 ft 466 kts 56°
2026-04-27 13:35 25.93777 104.30189 35160 ft 464 kts 56°
2026-04-27 13:35 25.97342 104.36273 35212 ft 468 kts 56°
2026-04-27 13:36 26.00919 104.42306 35211 ft 467 kts 54°
2026-04-27 13:36 26.05063 104.47830 35205 ft 467 kts 43°
2026-04-27 13:37 26.09114 104.51836 35197 ft 466 kts 38°
2026-04-27 13:37 26.15033 104.57168 35191 ft 467 kts 37°
2026-04-27 13:38 26.20076 104.61704 35184 ft 467 kts 38°
2026-04-27 13:38 26.24265 104.65531 35190 ft 467 kts 38°
2026-04-27 13:39 26.30144 104.70963 35192 ft 469 kts 39°
2026-04-27 13:39 26.34302 104.74830 35196 ft 469 kts 39°
2026-04-27 13:40 26.39317 104.79509 35187 ft 470 kts 39°
2026-04-27 13:40 26.45150 104.84961 35190 ft 470 kts 39°
2026-04-27 13:41 26.49375 104.88912 35180 ft 471 kts 39°
2026-04-27 13:41 26.54405 104.93624 35180 ft 471 kts 39°
2026-04-27 13:42 26.59421 104.98329 35179 ft 471 kts 39°
2026-04-27 13:42 26.64660 105.04520 35178 ft 474 kts 56°
2026-04-27 13:43 26.67345 105.09927 35186 ft 477 kts 64°
2026-04-27 13:43 26.70087 105.16627 35187 ft 475 kts 66°
2026-04-27 13:44 26.73168 105.24548 35190 ft 476 kts 66°
2026-04-27 13:44 26.75378 105.30209 35188 ft 477 kts 66°
2026-04-27 13:45 26.78055 105.36998 35182 ft 477 kts 66°
2026-04-27 13:45 26.81210 105.44949 35186 ft 479 kts 66°
2026-04-27 13:46 26.83469 105.50629 35184 ft 477 kts 66°
2026-04-27 13:46 26.86141 105.57347 35175 ft 479 kts 66°
2026-04-27 13:47 26.89290 105.65276 35178 ft 479 kts 66°
2026-04-27 13:47 26.91557 105.70991 35172 ft 478 kts 66°
2026-04-27 13:48 26.94253 105.77796 35161 ft 479 kts 66°
2026-04-27 13:48 26.97393 105.85740 35150 ft 480 kts 66°
2026-04-27 13:49 26.99656 105.91473 35147 ft 481 kts 66°
2026-04-27 13:49 27.02352 105.98313 35138 ft 480 kts 66°
2026-04-27 13:50 27.05086 106.05187 35139 ft 479 kts 65°
2026-04-27 13:50 27.08587 106.13008 35137 ft 480 kts 62°
2026-04-27 13:51 27.11692 106.19633 35138 ft 481 kts 62°
2026-04-27 13:51 27.14277 106.25178 35140 ft 479 kts 62°
2026-04-27 13:52 27.17872 106.32990 35131 ft 481 kts 62°
2026-04-27 13:52 27.20923 106.39671 35121 ft 482 kts 62°
2026-04-27 13:53 27.24985 106.48605 35108 ft 481 kts 62°
2026-04-27 13:54 27.28529 106.56423 35093 ft 482 kts 62°
2026-04-27 13:54 27.31058 106.62011 35092 ft 481 kts 62°
2026-04-27 13:55 27.34081 106.68703 35092 ft 482 kts 63°
2026-04-27 13:55 27.37625 106.76558 35089 ft 483 kts 62°
2026-04-27 13:56 27.40161 106.82207 35087 ft 483 kts 62°
2026-04-27 13:56 27.43661 106.90037 35089 ft 482 kts 62°
2026-04-27 13:57 27.46658 106.96755 35088 ft 482 kts 62°
2026-04-27 13:57 27.49690 107.03532 35087 ft 483 kts 62°
2026-04-27 13:58 27.52230 107.09153 35088 ft 483 kts 62°
2026-04-27 13:58 27.55792 107.17023 35086 ft 483 kts 62°
2026-04-27 13:59 27.58316 107.22609 35083 ft 483 kts 62°
2026-04-27 13:59 27.61360 107.29356 35083 ft 483 kts 62°
2026-04-27 14:00 27.64916 107.37251 35076 ft 483 kts 62°
2026-04-27 14:00 27.67449 107.42887 35074 ft 485 kts 62°
2026-04-27 14:01 27.70998 107.50797 35073 ft 482 kts 62°
2026-04-27 14:01 27.73523 107.56431 35067 ft 485 kts 62°
2026-04-27 14:02 27.76572 107.63247 35071 ft 483 kts 61°
2026-04-27 14:02 27.80097 107.71144 35074 ft 483 kts 62°
2026-04-27 14:03 27.83126 107.77946 35072 ft 485 kts 62°
2026-04-27 14:03 27.85676 107.83591 35057 ft 485 kts 61°
2026-04-27 14:04 27.88760 107.90331 35047 ft 484 kts 61°
2026-04-27 14:04 27.92403 107.98279 34587 ft 486 kts 61°
2026-04-27 14:04 27.93948 108.01659 34290 ft 484 kts 61°
2026-04-27 14:05 27.94972 108.03903 34095 ft 481 kts 61°
2026-04-27 14:05 27.97013 108.08385 33706 ft 479 kts 62°
2026-04-27 14:05 27.98014 108.10585 33513 ft 478 kts 62°
2026-04-27 14:05 28.00034 108.15034 33126 ft 475 kts 62°
2026-04-27 14:06 28.01033 108.17236 32943 ft 472 kts 62°
2026-04-27 14:06 28.03041 108.21664 32595 ft 470 kts 61°
2026-04-27 14:06 28.04024 108.23837 32422 ft 469 kts 62°
2026-04-27 14:06 28.05990 108.28182 32076 ft 466 kts 62°
2026-04-27 14:07 28.07475 108.31470 31814 ft 463 kts 62°
2026-04-27 14:07 28.08442 108.33609 31642 ft 461 kts 61°
2026-04-27 14:07 28.09902 108.36842 31381 ft 459 kts 61°
2026-04-27 14:07 28.11842 108.41142 31033 ft 459 kts 62°
2026-04-27 14:08 28.13289 108.44350 30774 ft 458 kts 62°
2026-04-27 14:08 28.14738 108.47566 30510 ft 454 kts 61°
2026-04-27 14:08 28.15680 108.49660 30338 ft 453 kts 62°
2026-04-27 14:08 28.17106 108.52834 30078 ft 452 kts 62°
2026-04-27 14:09 28.18530 108.56005 29818 ft 451 kts 61°
2026-04-27 14:09 28.20414 108.60201 29470 ft 447 kts 62°
2026-04-27 14:09 28.21827 108.63354 29206 ft 443 kts 62°
2026-04-27 14:09 28.23222 108.66466 28946 ft 442 kts 62°
2026-04-27 14:10 28.24613 108.69572 28695 ft 441 kts 62°
2026-04-27 14:10 28.26009 108.72692 28442 ft 440 kts 62°
2026-04-27 14:10 28.26930 108.74752 28277 ft 438 kts 62°
2026-04-27 14:10 28.28300 108.77818 28024 ft 434 kts 62°
2026-04-27 14:11 28.30106 108.81865 27692 ft 433 kts 62°
2026-04-27 14:11 28.31469 108.84921 27380 ft 430 kts 62°
2026-04-27 14:11 28.32803 108.87915 26938 ft 426 kts 62°
2026-04-27 14:11 28.34144 108.90926 26445 ft 423 kts 62°
2026-04-27 14:12 28.35468 108.93901 25948 ft 421 kts 62°
2026-04-27 14:12 28.36335 108.95850 25620 ft 419 kts 62°
2026-04-27 14:12 28.37654 108.98817 25116 ft 417 kts 62°
2026-04-27 14:12 28.39379 109.02698 24462 ft 413 kts 62°
2026-04-27 14:13 28.40237 109.04630 24138 ft 411 kts 62°
2026-04-27 14:13 28.41518 109.07517 23652 ft 409 kts 62°
2026-04-27 14:13 28.43216 109.11349 23002 ft 406 kts 62°
2026-04-27 14:13 28.44062 109.13260 22675 ft 405 kts 62°
2026-04-27 14:14 28.45746 109.17069 22027 ft 402 kts 62°
2026-04-27 14:14 28.46988 109.19885 21545 ft 400 kts 62°
2026-04-27 14:14 28.48230 109.22701 21054 ft 398 kts 62°
2026-04-27 14:14 28.49054 109.24575 20728 ft 397 kts 62°
2026-04-27 14:15 28.50294 109.27391 20232 ft 395 kts 62°
2026-04-27 14:15 28.51927 109.31097 19581 ft 392 kts 62°
2026-04-27 14:15 28.53153 109.33878 19091 ft 390 kts 62°
2026-04-27 14:15 28.53959 109.35709 18767 ft 388 kts 62°
2026-04-27 14:16 28.55525 109.39269 18123 ft 385 kts 62°
2026-04-27 14:16 28.56319 109.41074 17797 ft 383 kts 62°
2026-04-27 14:16 28.57495 109.43753 17318 ft 380 kts 63°
2026-04-27 14:16 28.59141 109.47309 16665 ft 377 kts 59°
2026-04-27 14:17 28.60039 109.49029 16322 ft 376 kts 57°
2026-04-27 14:17 28.61340 109.51390 15838 ft 375 kts 56°
2026-04-27 14:17 28.62724 109.53851 15348 ft 372 kts 56°
2026-04-27 14:17 28.64111 109.56320 14871 ft 369 kts 56°
2026-04-27 14:18 28.65487 109.58794 14406 ft 366 kts 57°
2026-04-27 14:18 28.66819 109.61221 14051 ft 360 kts 57°
2026-04-27 14:18 28.68563 109.64428 13465 ft 356 kts 58°
2026-04-27 14:18 28.69859 109.66829 13009 ft 353 kts 58°
2026-04-27 14:19 28.70719 109.68426 12699 ft 351 kts 58°
2026-04-27 14:19 28.72411 109.71577 12092 ft 347 kts 58°
2026-04-27 14:19 28.73659 109.73901 11649 ft 344 kts 58°
2026-04-27 14:19 28.74903 109.76213 11219 ft 341 kts 58°
2026-04-27 14:20 28.76157 109.78535 10790 ft 338 kts 58°
2026-04-27 14:20 28.77366 109.80772 10377 ft 335 kts 58°
2026-04-27 14:20 28.78592 109.83053 9963 ft 331 kts 58°
2026-04-27 14:20 28.79387 109.84534 9859 ft 323 kts 58°
2026-04-27 14:21 28.80883 109.87319 9432 ft 317 kts 58°
2026-04-27 14:21 28.82032 109.89459 9014 ft 312 kts 59°
2026-04-27 14:21 28.83133 109.91511 8680 ft 298 kts 59°
2026-04-27 14:21 28.83843 109.92834 8444 ft 290 kts 59°
2026-04-27 14:22 28.85205 109.95402 7997 ft 274 kts 62°
2026-04-27 14:22 28.85730 109.96703 7818 ft 265 kts 73°
2026-04-27 14:22 28.85945 109.98660 7805 ft 242 kts 98°
2026-04-27 14:22 28.85417 110.00451 7818 ft 236 kts 120°
2026-04-27 14:23 28.84458 110.01972 7822 ft 239 kts 134°
2026-04-27 14:23 28.82573 110.03262 7835 ft 240 kts 167°
2026-04-27 14:23 28.81479 110.03400 7838 ft 239 kts 180°
2026-04-27 14:23 28.79268 110.02930 7830 ft 242 kts 202°
2026-04-27 14:24 28.78317 110.02281 7824 ft 244 kts 220°
2026-04-27 14:24 28.77236 110.00741 7837 ft 247 kts 238°
2026-04-27 14:24 28.76063 109.98480 7833 ft 247 kts 237°
2026-04-27 14:24 28.75166 109.96818 7829 ft 245 kts 237°
2026-04-27 14:25 28.74262 109.95149 7828 ft 246 kts 237°
2026-04-27 14:25 28.73662 109.94042 7826 ft 246 kts 237°
2026-04-27 14:25 28.72460 109.91819 7824 ft 247 kts 237°
2026-04-27 14:25 28.71644 109.90096 7815 ft 247 kts 249°
2026-04-27 14:26 28.71381 109.88834 7807 ft 248 kts 268°
2026-04-27 14:26 28.71660 109.86903 7813 ft 249 kts 294°
2026-04-27 14:26 28.73007 109.84774 7815 ft 247 kts 321°
2026-04-27 14:26 28.74463 109.83721 7811 ft 247 kts 340°
2026-04-27 14:27 28.76133 109.83346 7804 ft 244 kts
2026-04-27 14:27 28.77797 109.83739 7816 ft 242 kts 22°
2026-04-27 14:27 28.78815 109.84260 7816 ft 241 kts 32°
2026-04-27 14:27 28.80361 109.86054 7819 ft 237 kts 60°
2026-04-27 14:28 28.81171 109.87696 7827 ft 237 kts 62°
2026-04-27 14:28 28.81976 109.89338 7827 ft 238 kts 61°
2026-04-27 14:28 28.82819 109.90963 7825 ft 237 kts 60°
2026-04-27 14:28 28.83674 109.92561 7828 ft 237 kts 59°
2026-04-27 14:29 28.84541 109.94167 7824 ft 237 kts 59°
2026-04-27 14:29 28.85467 109.95727 7817 ft 238 kts 47°
2026-04-27 14:29 28.86330 109.96548 7787 ft 241 kts 34°
2026-04-27 14:29 28.88300 109.97811 7343 ft 244 kts 31°
2026-04-27 14:30 28.89291 109.98441 7142 ft 242 kts 33°
2026-04-27 14:30 28.91182 109.99812 6747 ft 239 kts 37°
2026-04-27 14:30 28.92107 110.00530 6545 ft 239 kts 38°
2026-04-27 14:30 28.93937 110.01946 6157 ft 236 kts 37°
2026-04-27 14:31 28.95302 110.02985 5853 ft 235 kts 36°
2026-04-27 14:31 28.96672 110.03997 5569 ft 233 kts 36°
2026-04-27 14:31 28.98025 110.05002 5278 ft 231 kts 36°
2026-04-27 14:31 28.99312 110.06087 5105 ft 223 kts 45°
2026-04-27 14:32 29.00191 110.07471 5101 ft 215 kts 71°
2026-04-27 14:32 29.00394 110.08514 5105 ft 217 kts 88°
2026-04-27 14:32 29.00187 110.10226 5106 ft 221 kts 108°
2026-04-27 14:32 28.99186 110.12251 5107 ft 222 kts 132°
2026-04-27 14:33 28.97872 110.13194 5099 ft 225 kts 162°
2026-04-27 14:33 28.96269 110.13313 5114 ft 234 kts 185°
2026-04-27 14:33 28.94684 110.12775 5123 ft 241 kts 203°
2026-04-27 14:33 28.93267 110.11736 5125 ft 243 kts 215°
2026-04-27 14:34 28.91904 110.10571 5114 ft 245 kts 212°
2026-04-27 14:34 28.90504 110.09500 5116 ft 242 kts 209°
2026-04-27 14:34 28.89063 110.08469 5129 ft 241 kts 209°
2026-04-27 14:34 28.87651 110.07444 5127 ft 241 kts 211°
2026-04-27 14:35 28.86715 110.06719 5127 ft 240 kts 213°
2026-04-27 14:35 28.85199 110.04851 5107 ft 245 kts 246°
2026-04-27 14:35 28.84952 110.02959 5115 ft 246 kts 279°
2026-04-27 14:35 28.85583 110.01159 5132 ft 241 kts 309°
2026-04-27 14:36 28.86322 110.00255 5137 ft 227 kts 324°
2026-04-27 14:36 28.87683 109.99478 5128 ft 213 kts 351°
2026-04-27 14:36 28.89639 109.99344 5125 ft 206 kts 12°
2026-04-27 14:36 28.90568 109.99582 5126 ft 205 kts 24°
2026-04-27 14:37 28.92178 110.00685 5133 ft 200 kts 41°
2026-04-27 14:37 28.92939 110.01309 5129 ft 201 kts 36°
2026-04-27 14:37 28.94517 110.02417 5132 ft 200 kts 35°
2026-04-27 14:37 28.95699 110.03272 5129 ft 199 kts 36°
2026-04-27 14:38 28.96874 110.04151 5127 ft 201 kts 37°
2026-04-27 14:38 28.98038 110.05045 5127 ft 200 kts 37°
2026-04-27 14:38 28.98805 110.05650 5109 ft 199 kts 41°
2026-04-27 14:38 29.00141 110.07076 5027 ft 189 kts 48°
2026-04-27 14:39 29.01044 110.08130 4980 ft 179 kts 49°
2026-04-27 14:39 29.01829 110.09199 4908 ft 174 kts 58°
2026-04-27 14:39 29.02398 110.10411 4837 ft 173 kts 68°
2026-04-27 14:39 29.02818 110.11719 4588 ft 176 kts 73°
2026-04-27 14:40 29.03155 110.13036 4452 ft 167 kts 74°
2026-04-27 14:40 29.03508 110.14281 4396 ft 166 kts 74°
2026-04-27 14:40 29.03791 110.15594 4374 ft 173 kts 77°
2026-04-27 14:40 29.04087 110.16917 4325 ft 168 kts 75°
2026-04-27 14:41 29.04403 110.18224 4268 ft 171 kts 73°
2026-04-27 14:41 29.04694 110.19506 4240 ft 166 kts 77°
2026-04-27 14:41 29.04866 110.20371 4182 ft 162 kts 75°
2026-04-27 14:41 29.05253 110.22006 4110 ft 159 kts 75°
2026-04-27 14:42 29.05548 110.23213 4095 ft 154 kts 75°
2026-04-27 14:42 29.05724 110.24008 4060 ft 152 kts 76°
2026-04-27 14:42 29.06038 110.25565 3999 ft 154 kts 75°
2026-04-27 14:42 29.06309 110.26765 3825 ft 153 kts 72°
2026-04-27 14:43 29.06590 110.27935 3587 ft 152 kts 76°
2026-04-27 14:43 29.06829 110.29098 3364 ft 150 kts 76°
2026-04-27 14:43 29.07096 110.30268 3162 ft 152 kts 74°
2026-04-27 14:43 29.07381 110.31421 2922 ft 150 kts 74°
2026-04-27 14:44 29.07642 110.32585 2711 ft 153 kts 75°
2026-04-27 14:44 29.07815 110.33370 2579 ft 153 kts 74°
2026-04-27 14:44 29.08180 110.34931 2279 ft 152 kts 73°
2026-04-27 14:44 29.08440 110.36119 2064 ft 154 kts 75°
2026-04-27 14:45 29.08699 110.37299 1846 ft 153 kts 73°
2026-04-27 14:45 29.08977 110.38494 1623 ft 154 kts 73°
2026-04-27 14:45 29.09238 110.39674 1412 ft 155 kts 74°
2026-04-27 14:45 29.09512 110.40881 1183 ft 155 kts 73°
2026-04-27 14:46 29.09698 110.41672 1033 ft 156 kts 73°
2026-04-27 14:46 29.10053 110.43282 762 ft 153 kts 74°
2026-04-27 14:46 29.10267 110.44237 740 ft 125 kts 74°
2026-04-27 14:46 29.10426 110.44944 739 ft 61 kts 76°
2026-04-27 14:47 29.10506 110.45297 739 ft 42 kts 75°
2026-04-27 14:47 29.10558 110.45536 739 ft 18 kts 76°
2026-04-27 14:47 29.10608 110.45631 739 ft 13 kts 12°
2026-04-27 14:47 29.10697 110.45613 739 ft 12 kts 342°
2026-04-27 14:48 29.10734 110.45538 739 ft 11 kts 259°
2026-04-27 14:48 29.10682 110.45319 739 ft 18 kts 254°
2026-04-27 14:48 29.10647 110.45158 739 ft 22 kts 254°
2026-04-27 14:49 29.10605 110.44980 739 ft 21 kts 254°
2026-04-27 14:49 29.10580 110.44871 739 ft 20 kts 256°
2026-04-27 14:49 29.10530 110.44684 739 ft 15 kts 256°
2026-04-27 14:49 29.10519 110.44611 740 ft 5 kts 287°
2026-04-27 14:50 29.10548 110.44587 740 ft 5 kts 342°
2026-04-27 14:50 29.10564 110.44582 740 ft 0 kts 344°